Starlink 1153

operational
NORAD ID: 45080 Int'l Des: 2020-006 Owner: SPXS Country: US Constellation: starlink
LEOCIRCULARSTARLINK_TYPE

About Starlink 1153

Description loading...

Live Position

Loading 3D Globe...

Upcoming Passes

Altitude History

Altitude vs Time

uPlot chart will show altitude changes over time

Two-Line Element Set

1 45080U 20006AN 25261.14770837 -.00000505 00000-0 -15024-4 0 9996
2 45080 53.0555 321.1929 0001459 83.8126 276.3030 15.06389476310730
Epoch: Sep 18, 2025 • Age: 14 hours

Current Status

Altitude 563.7 km
Velocity 7.58 km/s
Sub-Earth Point -45.95°S, 6.13°E
Launch Date Jan 29, 2020
Age 5.6 years
Type internet

Technical Details

Classification Payload
Mass 260.00 kg
Dry Mass 248.00 kg
Total Mass 260.00 kg
Length 0.20 m
Diameter 2.80 m
Span 9.00 m
Shape Box + pan
Manufacturer SPXS
Bus Type Starlink
Phase Status In Orbit
Owner/State SPXS/US

Large Constellations

Loading constellations...